Location: Ferques
(50.8300°N, 1.7599°E)
Time: 11:56:12
(UTC+00:00)

Cosmos 1975 - Pass Details

Date: 19 May 2025
Orbit: 487 x 506 km, 82.5° (Epoch: 11 June)

Event Time Altitude Azimuth Distance (km) Brightness Sun altitude
Rises 22:44:32 0° 349° (N) 2,576 8.0 -17.8°
Reaches altitude 10° 22:46:39 10° 349° (N) 1,688 6.6 -17.8°
Maximum altitude 22:50:21 88° 260° (W) 495 2.5 -18.0°
Enters shadow 22:51:15 49° 174° (S) 635 2.7 -18.0°
